千帆星座-210(QIANFAN-210)

导读

Basic Information
目录编号:
69809
目录名称:
QIANFAN-210
国际标识:
2026-153K
轨道中心:
EARTH
卫星名称:
千帆星座-210
卫星全名:
千帆星座-210(QIANFAN-210)
卫星状态:
在轨 (已飞行63 天)
发射日期:
2026-07-04 UTC
国别 :
中国 (CN)
星等 :
--
Orbit Information
数据来源 国际轨道数据 AOE轨道数据
星历时间 2026-09-05T13:22:32+0800
3小时前
查看轨道信息
2026-08-30T03:00:00+0800
6天前
查看轨道信息
半长轴 7232.391km 7232.405km
偏心率 0.0009094 0.0009862
轨道倾角 88.998° 88.998°
近地点辐角 32.585° 51.803°
升交点赤经 353.163° 353.883°
平近点角 327.589° 43.918°
近地点 847.676km 847.135km
远地点 860.832km 861.401km
周期 102.019分钟 102.020分钟
每日圈数 14.114971 14.114928
Detailed Information
卫星平台:
210
覆盖范围:
全球
运营商:
上海垣信卫星科技有限公司
运营商所在国:
中国
使用方式:
暂无
Satellite Introduction
千帆星座,也被称为“G60星链”计划,是中国版“星链”的重要组成部分,旨在打造一个由1.4万多颗低轨宽频多媒体卫星构成的庞大星座。千帆星座计划由上海垣信卫星科技有限公司负责实施,于2023年启动建设。该项目是我国第二个低轨卫星大星座,旨在通过构建庞大的卫星网络,为全球用户提供高质量的通信和宽带互联网服务。
2D Orbit Map
3D Orbit Map
Orbit Altitude Analysis Chart
Orbit Inclination Analysis Chart
Orbit Comprehensive Analysis Chart
View Comprehensive Chart
Conjunction Data List
Event ID Objects TCA Miss Dist (km) Collision Risk Probability Collision Risk Index (CRI) Action
CDM_260828-191103-064606-980924
2026-08-28T
19:11:36+0000
1.648 km
极远距离
4.125147E-6 低风险 0.47